x

9449880 - Friday Harbor, Wa (frdw1) Weather Station

9:36am - Thu 5th Mar 2015 All times are PST. -8 hours from GMT.

  • Wind
  • Sea Temp 48°f
  • 空気 Temp 47°f
  • Sea Pressure 1029mb
  • 9449880 - Friday Harbor, Wa
  • 9449880 - Friday Harbor, Wa

More Historic Weather Station data

Upgrade to MSW Pro to gain access to the past 30 days of data for over 8000 Wavebouys and Weather Stations around the globe.

Join Pro

Comparision Forecast

View Surf forecast
   
Thu 03/05 9:36am  -  1 mph 1029mb 48f 47f
9:30am  -  1 mph 1029mb 48f 46f
9:24am  -  1 mph 1029mb 48f 47f
9:18am  -  1 mph 1029mb 48f 47f
9:12am  -  1 mph 1029mb 48f 47f
9:06am  -  1 mph 1029mb 48f 45f
9:00am  -  2 mph 1029mb 48f 44f
8:36am 1 2 mph 1028.8mb 48f 41f
8:30am  -  2 mph 1028.7mb 48f 41f
8:24am  -  2 mph 1028.6mb 48f 40f
8:18am 1 2 mph 1028.5mb 48f 39f
8:12am 1 2 mph 1028.4mb 48f 39f
8:06am  -  2 mph 1028.3mb 48f 39f
8:00am 2
mph
1028.3mb 48f 38f
7:36am 2 3 mph 1028.1mb 48f 38f
7:30am 2 3 mph 1028.1mb 48f 38f
7:24am 2 3 mph 1027.9mb 48f 38f
7:18am 1 2 mph 1027.8mb 48f 38f
7:12am 1 2 mph 1027.8mb 48f 37f
7:06am 1 2 mph 1027.8mb 48f 37f
7:00am 1 3 mph 1027.7mb 48f 37f
6:36am 2 3 mph 1027.5mb 48f 37f
6:30am 2 3 mph 1027.4mb 48f 38f
6:24am 1 2 mph 1027.4mb 48f 37f
6:18am 1 3 mph 1027.4mb 48f 37f
6:12am 2 3 mph 1027.4mb 48f 37f
6:06am 3
mph
1027.4mb 48f 37f
6:00am 2 3 mph 1027.4mb 48f 37f
5:36am 1 2 mph 1027.2mb 48f 37f
5:30am 2 3 mph 1027.1mb 48f 37f
5:24am 2 3 mph 1027.1mb 48f 37f
5:18am 2 5 mph 1027mb 48f 37f
5:12am 3 5 mph 1026.9mb 48f 37f
5:06am 3 5 mph 1026.8mb 48f 36f
5:00am 2 3 mph 1026.7mb 48f 37f
4:36am 2 3 mph 1026.7mb 48f 37f
4:30am 3
mph
1026.7mb 48f 37f
4:24am 3
mph
1026.7mb 48f 37f
4:18am 1 3 mph 1026.7mb 48f 37f
4:12am 2 3 mph 1026.7mb 48f 37f
4:06am 1 3 mph 1026.6mb 48f 37f
4:00am 3
mph
1026.6mb 48f 37f
3:36am 2 3 mph 1026.7mb 48f 37f
3:30am 3
mph
1026.7mb 48f 36f
3:24am 3 5 mph 1026.7mb 48f 37f
3:18am 2 3 mph 1026.7mb 48f 38f
3:12am  -  1 mph 1026.7mb 48f 37f
3:06am 2 3 mph 1026.8mb 48f 37f
3:00am 2 3 mph 1026.8mb 48f 37f
2:36am 2 3 mph 1026.9mb 48f 37f
2:30am 2 3 mph 1026.9mb 48f 37f
2:24am 2
mph
1026.9mb 48f 38f
2:18am 2 3 mph 1027mb 48f 38f
2:12am 3
mph
1026.9mb 48f 37f
2:06am 2 3 mph 1027mb 48f 38f
2:00am 2
mph
1026.9mb 48f 38f
1:36am 1 3 mph 1027mb 48f 37f
1:30am 2 3 mph 1027mb 48f 37f
1:24am 3 5 mph 1027mb 48f 36f
1:18am 5
mph
1026.9mb 48f 37f
1:12am 1 2 mph 1026.8mb 48f 38f
1:06am  -  3 mph 1026.8mb 48f 38f
1:00am 1 2 mph 1026.8mb 48f 38f
12:36am 2 3 mph 1026.9mb 48f 37f
12:30am 5
mph
1026.9mb 48f 37f
12:24am 3 5 mph 1026.8mb 48f 37f
12:18am 2 3 mph 1026.8mb 48f 37f
12:12am 3
mph
1026.9mb 48f 37f
12:06am 2 3 mph 1026.9mb 48f 38f
12:00am 2 5 mph 1026.9mb 48f 37f
Wed 03/04 11:36pm 2 3 mph 1027mb 48f 38f
11:30pm 2 3 mph 1027mb 48f 38f
11:24pm 2 3 mph 1027mb 48f 37f
11:18pm 3 5 mph 1026.9mb 48f 38f
11:12pm 2 5 mph 1026.9mb 48f 38f
11:06pm 2 3 mph 1026.9mb 48f 38f
11:00pm 3 5 mph 1026.9mb 48f 38f
10:36pm 3
mph
1026.9mb 48f 38f
10:30pm 2 3 mph 1026.7mb 48f 38f
10:24pm 3 5 mph 1026.7mb 48f 38f
10:18pm 3
mph
1026.7mb 48f 39f
10:12pm 2 3 mph 1026.7mb 48f 38f
10:06pm 2 5 mph 1026.7mb 48f 38f
10:00pm 3 5 mph 1026.7mb 48f 38f
9:36pm 3 5 mph 1026.6mb 48f 39f
9:30pm 3
mph
1026.5mb 48f 39f
9:24pm 3 5 mph 1026.4mb 48f 39f
9:18pm 3
mph
1026.3mb 48f 39f
9:12pm 2 3 mph 1026.3mb 48f 39f
9:06pm 2 3 mph 1026.3mb 48f 40f
9:00pm  -  2 mph 1026.3mb 48f 39f
8:36pm 2
mph
1026.3mb 48f 40f
8:30pm 1 2 mph 1026.3mb 48f 40f
8:24pm 1 2 mph 1026.3mb 48f 40f
8:18pm 2 3 mph 1026.2mb 48f 40f
8:12pm 1 2 mph 1026.2mb 48f 40f
8:06pm  -  1 mph 1026.1mb 48f 40f
8:00pm 1 2 mph 1026.1mb 48f 40f
7:36pm  -  1 mph 1026.1mb 48f 41f
7:30pm  -  mph 1026.1mb 48f 42f
7:24pm  -  1 mph 1026.1mb 48f 42f
7:18pm  -  1 mph 1026.1mb 48f 42f
7:12pm  -  2 mph 1026.1mb 48f 42f
7:06pm  -  1 mph 1026.1mb 48f 42f
7:00pm  -  2 mph 1026.1mb 48f 42f
6:36pm  -  1 mph 1026.1mb 48f 43f
6:30pm  -  1 mph 1026mb 48f 44f
6:24pm  -  1 mph 1025.9mb 48f 43f
6:18pm  -  mph 1025.9mb 48f 43f
6:12pm  -  1 mph 1025.8mb 48f 44f
6:06pm  -  2 mph 1025.7mb 48f 45f
6:00pm 1 2 mph 1025.7mb 48f 46f
5:36pm 1 2 mph 1025.6mb 48f 46f
5:30pm  -  1 mph 1025.6mb 48f 46f
5:24pm  -  2 mph 1025.7mb 48f 47f
5:18pm  -  2 mph 1025.6mb 48f 47f
5:12pm 1 2 mph 1025.7mb 48f 48f
5:06pm 2 3 mph 1025.7mb 48f 48f
5:00pm 3 5 mph 1025.8mb 48f 48f
4:36pm 2 5 mph 1025.8mb 48f 48f
4:30pm 5
mph
1025.9mb 48f 48f
4:24pm 5 7 mph 1025.9mb 48f 48f
4:18pm 5 6 mph 1025.9mb 48f 48f
4:12pm 5 6 mph 1025.8mb 48f 48f
4:06pm 3 6 mph 1025.9mb 48f 48f
4:00pm 5 6 mph 1025.9mb 48f 48f
3:36pm 3 5 mph 1026mb 48f 48f
3:30pm 2 3 mph 1026mb 48f 48f
3:24pm 3
mph
1026mb 48f 48f
3:18pm 2 3 mph 1026mb 48f 48f
3:12pm 2 5 mph 1026.1mb 48f 48f
3:06pm 3 6 mph 1026.1mb 48f 48f
3:00pm 5 7 mph 1026.1mb 48f 48f
2:36pm 5 6 mph 1026mb 48f 48f
2:30pm 3 7 mph 1026mb 48f 48f
2:24pm 5 6 mph 1025.9mb 48f 48f
2:18pm 2 3 mph 1026mb 48f 48f
2:12pm 2 3 mph 1026.1mb 48f 48f
2:06pm 2 3 mph 1026.1mb 48f 47f
2:00pm 2
mph
1026.1mb 48f 47f
1:36pm 2
mph
1026.2mb 48f 47f
1:30pm 2
mph
1026.3mb 48f 47f
1:24pm 2 3 mph 1026.3mb 48f 47f
1:18pm 2 3 mph 1026.3mb 48f 47f
1:12pm 3
mph
1026.3mb 48f 46f
1:06pm 2 3 mph 1026.4mb 48f 46f
1:00pm 2
mph
1026.3mb 48f 46f
12:36pm 2 3 mph 1026.6mb 48f 46f
12:30pm 2 3 mph 1026.6mb 48f 46f
12:24pm 2 3 mph 1026.7mb 48f 46f
12:18pm 2 3 mph 1026.8mb 48f 46f
12:12pm 2
mph
1026.7mb 48f 46f
12:06pm 2 3 mph 1026.8mb 48f 46f
12:00pm 2 3 mph 1026.9mb 48f 45f
11:36am 2
mph
1026.9mb 48f 45f
11:30am 1 2 mph 1026.9mb 48f 46f
11:24am 1 2 mph 1026.9mb 48f 46f
11:18am 1 2 mph 1026.9mb 48f 46f
11:12am  -  1 mph 1026.9mb 48f 47f
11:06am 1 2 mph 1026.9mb 48f 45f
11:00am 2 3 mph 1026.8mb 48f 44f
10:54am 3
mph
1026.8mb 48f 44f
10:48am 3 5 mph 1026.8mb 48f 43f
10:36am 3 5 mph 1026.9mb 48f 43f
10:30am 3 5 mph 1026.9mb 48f 43f
10:24am 3 6 mph 1026.9mb 48f 43f
10:18am 3 5 mph 1026.8mb 48f 43f
10:12am 3 5 mph 1026.9mb 48f 42f
10:06am 3 5 mph 1026.9mb 48f 43f
10:00am 3
mph
1027mb 48f 42f
9:54am 2 3 mph 1027mb 48f 42f
9:48am 2 3 mph 1027mb 48f 42f
9:36am 3 5 mph 1027mb 48f 42f
9:30am 2 3 mph 1026.9mb 48f 42f
9:24am 1 3 mph 1026.9mb 48f 42f
9:18am 2 3 mph 1026.9mb 48f 42f
9:12am 1 2 mph 1026.9mb 48f 42f
9:06am 2
mph
1026.8mb 48f 42f
9:00am  -  1 mph 1026.8mb 48f 44f
8:54am 1 2 mph 1026.7mb 48f 42f
8:48am  -  1 mph 1026.7mb 48f 42f
8:36am 1 2 mph 1026.6mb 48f 42f
8:30am  -  2 mph 1026.6mb 48f 42f
8:24am  -  1 mph 1026.5mb 48f 41f
8:18am  -  2 mph 1026.5mb 48f 41f
8:12am  -  1 mph 1026.5mb 48f 40f
8:06am  -  2 mph 1026.5mb 48f 38f
8:00am 2
mph
1026.4mb 48f 36f
7:54am 2 3 mph 1026.4mb 48f 36f
7:48am 2 5 mph 1026.4mb 48f 35f
7:36am 2 3 mph 1026.4mb 48f 35f
7:30am 3
mph
1026.4mb 48f 35f
7:24am 2 3 mph 1026.3mb 48f 35f
7:18am 2 3 mph 1026.3mb 48f 34f
7:12am 2 3 mph 1026.2mb 48f 34f
7:06am 3
mph
1026.2mb 48f 33f
7:00am 3
mph
1026.2mb 48f 33f
6:54am 2 5 mph 1026.2mb 48f 33f
6:48am 3 5 mph 1026.2mb 48f 33f
6:36am  -  1 mph 1026.2mb 48f 33f
6:30am 2 3 mph 1026.1mb 48f 33f
6:24am 2 5 mph 1026.1mb 48f 34f
6:18am 2
mph
1026.1mb 48f 34f
6:12am 1 2 mph 1026.1mb 48f 34f
6:06am 1 3 mph 1026.1mb 48f 33f
6:00am 3 5 mph 1026.1mb 48f 33f
5:54am 3 5 mph 1026.1mb 48f 33f
5:48am  -  3 mph 1026.1mb 48f 34f
5:36am  -  1 mph 1026mb 48f 34f
5:30am 1 2 mph 1026.1mb 48f 35f
5:24am 1 2 mph 1026.1mb 48f 35f
5:18am 1 3 mph 1026mb 48f 34f
5:12am 2 3 mph 1025.9mb 48f 35f
5:06am 2
mph
1025.9mb 48f 35f
5:00am 1 2 mph 1026mb 48f 35f
4:54am 2 3 mph 1025.9mb 48f 35f
4:48am 2
mph
1025.9mb 48f 35f
4:36am 1 2 mph 1025.8mb 48f 34f
4:30am 2 5 mph 1025.8mb 48f 34f
4:24am 3 5 mph 1025.8mb 48f 33f
4:18am 3 5 mph 1025.8mb 48f 33f
4:12am 3 5 mph 1025.7mb 48f 34f
4:06am 2 3 mph 1025.7mb 48f 35f
4:00am 1
mph
1025.6mb 48f 35f
3:54am  -  1 mph 1025.7mb 48f 35f
3:48am 1 5 mph 1025.7mb 48f 35f
3:36am  -  3 mph 1025.7mb 48f 35f
3:30am 2 3 mph 1025.7mb 48f 35f
3:24am 2 3 mph 1025.7mb 48f 34f
3:18am 3 5 mph 1025.7mb 48f 34f
3:12am 3 5 mph 1025.7mb 48f 34f
3:06am  -  1 mph 1025.7mb 48f 35f
3:00am  -  2 mph 1025.7mb 48f 34f
2:54am 2 5 mph 1025.7mb 48f 33f
2:48am 5
mph
1025.8mb 48f 34f
2:36am 2 3 mph 1025.8mb 48f 35f
2:30am 2 3 mph 1025.9mb 48f 35f
2:24am 2 3 mph 1025.8mb 48f 35f
2:18am 2 3 mph 1025.7mb 48f 35f
2:12am 2 5 mph 1025.8mb 48f 34f
2:06am 2 3 mph 1025.8mb 48f 35f
2:00am  -  2 mph 1025.9mb 48f 35f
1:54am  -  3 mph 1025.9mb 48f 35f
1:48am 5 6 mph 1025.9mb 48f 34f
1:36am 2
mph
1025.8mb 48f 36f
1:30am  -  2 mph 1025.7mb 48f 36f
1:24am 2 5 mph 1025.7mb 48f 35f
1:18am 2 3 mph 1025.7mb 48f 34f
1:12am 3 5 mph 1025.6mb 48f 34f
1:06am 3 5 mph 1025.6mb 48f 35f
1:00am 2
mph
1025.5mb 48f 35f
12:54am  -  3 mph 1025.5mb 48f 35f
12:48am 2 5 mph 1025.5mb 48f 34f
12:36am 3 5 mph 1025.4mb 48f 35f
12:30am 3 5 mph 1025.3mb 48f 35f
12:24am 3
mph
1025.3mb 48f 36f
12:18am 1
mph
1025.3mb 48f 36f
12:12am 1 2 mph 1025.3mb 48f 35f
12:06am 2 3 mph 1025.2mb 48f 34f
12:00am 5 6 mph 1025.2mb 48f 34f
Tue 03/03 11:54pm 5
mph
1025.1mb 48f 34f
11:48pm 3 5 mph 1025.1mb 48f 35f
11:36pm 2 3 mph 1025.1mb 48f 36f
11:30pm 2 3 mph 1025.1mb 48f 35f
11:24pm 3 5 mph 1025mb 48f 35f
11:18pm 3
mph
1025mb 48f 35f
11:12pm 2 3 mph 1025mb 48f 36f
11:06pm 3
mph
1025mb 48f 36f
11:00pm 3
mph
1025mb 48f 36f
10:54pm 3 5 mph 1025mb 48f 36f
10:48pm 2 3 mph 1024.9mb 48f 36f
10:36pm 2 3 mph 1024.9mb 48f 36f
10:30pm  -  mph 1024.9mb 48f 36f
10:24pm  -  2 mph 1024.9mb 48f 36f
10:18pm  -  2 mph 1024.9mb 48f 36f
10:12pm 2 3 mph 1024.9mb 48f 36f
10:06pm 2 3 mph 1024.8mb 48f 35f
10:00pm 3
mph
1024.8mb 48f 36f
9:54pm 3
mph
1024.8mb 48f 36f
9:48pm 2 3 mph 1024.7mb 48f 36f
9:36pm 2 3 mph 1024.7mb 48f 37f
9:30pm 1 2 mph 1024.7mb 48f 36f
9:24pm 3
mph
1024.6mb 48f 36f
9:18pm 2 3 mph 1024.6mb 48f 37f
9:12pm 2 3 mph 1024.5mb 48f 37f
9:06pm 2
mph
1024.4mb 48f 37f
9:00pm 1 2 mph 1024.4mb 48f 37f
8:54pm 1 3 mph 1024.3mb 48f 37f
8:48pm 2 3 mph 1024.3mb 48f 38f
8:36pm 2
mph
1024.2mb 48f 37f
8:30pm 2 3 mph 1024.2mb 48f 38f
8:24pm 1 2 mph 1024.2mb 48f 38f
8:18pm  -  2 mph 1024.1mb 48f 38f
8:12pm  -  1 mph 1024.1mb 48f 38f
8:06pm 2
mph
1024.1mb 48f 38f
8:00pm 3
mph
1024.1mb 48f 39f
7:54pm  -  2 mph 1024.1mb 48f 39f
7:48pm  -  2 mph 1024.1mb 48f 39f
7:36pm 2 3 mph 1024mb 48f 39f
7:30pm 2 3 mph 1024mb 48f 39f
7:24pm 1 2 mph 1024mb 48f 39f
7:18pm  -  1 mph 1024.1mb 48f 40f
7:12pm  -  3 mph 1024.1mb 48f 40f
7:06pm 2 3 mph 1024.1mb 48f 40f
7:00pm 1 3 mph 1024.1mb 48f 40f
6:54pm 2 3 mph 1024.1mb 48f 41f
6:48pm  -  1 mph 1024.1mb 48f 43f
6:36pm  -  1 mph 1024mb 48f 44f
6:30pm  -  1 mph 1023.9mb 48f 44f
6:24pm  -  2 mph 1023.9mb 48f 43f
6:18pm  -  2 mph 1023.9mb 48f 44f
6:12pm  -  1 mph 1023.9mb 48f 44f
6:06pm  -  1 mph 1023.9mb 48f 44f
6:00pm  -  2 mph 1024mb 48f 44f
5:54pm  -  2 mph 1023.9mb 48f 45f
5:48pm  -  1 mph 1023.9mb 48f 45f
5:36pm  -  1 mph 1023.9mb 48f 47f
5:30pm  -  2 mph 1023.9mb 48f 47f
5:24pm  -  1 mph 1023.9mb 48f 49f
5:18pm  -  1 mph 1023.9mb 48f 49f
5:12pm  -  2 mph 1023.9mb 48f 49f
5:06pm  -  2 mph 1023.9mb 48f 49f
5:00pm  -  1 mph 1023.9mb 48f 50f
4:54pm  -  2 mph 1023.9mb 48f 48f
4:48pm  -  1 mph 1023.9mb 48f 49f
4:36pm  -  3 mph 1023.9mb 48f 47f
4:30pm 1 2 mph 1024mb 48f 47f
4:24pm 2 5 mph 1024mb 48f 47f
4:18pm 2 5 mph 1024.1mb 48f 47f
4:12pm 2 3 mph 1024.1mb 48f 47f
4:06pm 2 3 mph 1024.2mb 48f 47f
4:00pm 2 3 mph 1024.2mb 48f 47f
3:54pm 1 6 mph 1024.2mb 48f 47f
3:48pm 2 5 mph 1024.3mb 48f 47f
3:36pm 2 3 mph 1024.3mb 48f 47f
3:30pm 2 5 mph 1024.3mb 48f 47f
3:24pm 3 6 mph 1024.4mb 48f 47f
3:18pm 2 5 mph 1024.4mb 48f 48f
3:12pm 3 5 mph 1024.4mb 48f 47f
3:06pm 1 7 mph 1024.5mb 48f 47f
3:00pm 3 6 mph 1024.4mb 48f 47f
2:54pm 3 6 mph 1024.4mb 48f 47f
2:48pm 5 7 mph 1024.4mb 48f 47f
2:36pm 2 6 mph 1024.5mb 48f 47f
2:30pm 3 10 mph 1024.5mb 48f 47f
2:24pm 2 8 mph 1024.5mb 48f 47f
2:18pm 3 7 mph 1024.6mb 48f 48f
2:12pm 3 7 mph 1024.6mb 48f 47f
2:06pm 3 7 mph 1024.6mb 48f 47f
2:00pm 2 5 mph 1024.7mb 48f 48f
1:54pm 1 5 mph 1024.8mb 48f 48f
1:48pm 1 6 mph 1024.7mb 48f 48f
1:36pm 6 11 mph 1024.9mb 48f 47f
1:30pm 3 9 mph 1024.8mb 48f 47f
1:24pm 6 11 mph 1024.8mb 48f 47f
1:18pm 2 7 mph 1024.9mb 48f 47f
1:12pm 3 9 mph 1024.9mb 48f 47f
1:06pm 6 9 mph 1024.9mb 48f 47f
1:00pm 5 7 mph 1025mb 48f 47f
12:54pm 7 11 mph 1025mb 48f 47f
12:48pm 6 9 mph 1025mb 48f 47f
12:36pm 6 10 mph 1025.1mb 48f 46f
12:30pm 7 10 mph 1025.1mb 48f 46f
12:24pm 7 9 mph 1025.2mb 48f 46f
12:18pm 8 10 mph 1025.3mb 48f 46f
12:12pm 9 13 mph 1025.3mb 48f 46f
12:06pm 9 11 mph 1025.3mb 48f 46f
12:00pm 7 13 mph 1025.3mb 48f 46f
11:54am 8 11 mph 1025.3mb 48f 46f
11:48am 5 8 mph 1025.3mb 48f 46f
11:36am 5 7 mph 1025.3mb 48f 45f
11:30am 6 10 mph 1025.3mb 48f 46f
11:24am 8 9 mph 1025.3mb 48f 45f
11:18am 8 10 mph 1025.4mb 48f 44f
11:12am 3 5 mph 1025.5mb 48f 44f
11:06am 5
mph
1025.5mb 48f 44f
11:00am 2
mph
1025.5mb 48f 45f
10:54am 1 2 mph 1025.5mb 48f 46f
10:48am 1 2 mph 1025.5mb 48f 45f
10:36am 2 3 mph 1025.5mb 48f 44f
10:30am 2 3 mph 1025.5mb 48f 44f
10:24am 2 3 mph 1025.6mb 48f 44f
10:18am 1 2 mph 1025.6mb 48f 45f
10:12am  -  2 mph 1025.6mb 48f 45f
10:06am  -  2 mph 1025.6mb 48f 45f
10:00am 1 3 mph 1025.7mb 48f 46f
9:54am  -  2 mph 1025.7mb 48f 45f
9:48am 1 2 mph 1025.7mb 48f 44f
9:36am 2 3 mph 1025.6mb 48f 44f
9:30am 3 7 mph 1025.6mb 48f 43f
9:24am 5 7 mph 1025.6mb 48f 43f
9:18am 5 7 mph 1025.5mb 48f 43f
9:12am 5 7 mph 1025.5mb 48f 43f
9:06am 6 8 mph 1025.6mb 48f 43f
9:00am 6 8 mph 1025.5mb 48f 43f
8:36am 3 6 mph 1025.2mb 48f 43f
8:30am 5 6 mph 1025.1mb 48f 42f
8:24am 2 3 mph 1025.1mb 48f 43f
8:18am 2 5 mph 1025mb 48f 42f
8:12am 2 5 mph 1024.9mb 48f 43f
8:06am 2 3 mph 1024.9mb 48f 42f
8:00am 2 3 mph 1024.8mb 48f 43f
7:36am 3 8 mph 1024.5mb 48f 41f
7:30am 3 8 mph 1024.5mb 48f 41f
7:24am 2 6 mph 1024.5mb 48f 41f
7:18am 1 3 mph 1024.4mb 48f 41f
7:12am  -  2 mph 1024.4mb 48f 40f
7:06am 1 6 mph 1024.3mb 48f 40f
7:00am  -  5 mph 1024.3mb 48f 39f
6:54am 2 7 mph 1024.3mb 48f 39f
6:48am 1 5 mph 1024.3mb 48f 39f
6:36am  -  mph 1024.5mb 48f -
6:30am  -  mph 1024.6mb 48f -
6:24am  -  mph 1024.6mb 48f -
6:18am  -  mph 1024.6mb 48f -
6:12am  -  mph 1024.6mb 48f -
6:06am  -  mph 1024.4mb 48f -
6:00am  -  mph 1024.4mb 48f -
5:54am  -  mph 1024.3mb 48f -
5:48am  -  mph 1024.3mb 48f -
5:36am  -  mph 1024.3mb - 41f
5:30am  -  mph 1024.3mb - 41f
5:24am  -  mph 1024.2mb - 41f
5:18am  -  mph 1024.2mb - 42f
5:12am  -  mph 1024.2mb - 42f
5:06am  -  mph 1024.2mb - 42f
5:00am  -  mph 1024.2mb - 42f
4:54am  -  mph 1024.3mb - 42f
4:48am  -  mph 1024.3mb - 42f
4:36am 8 11 mph - - -
4:30am 10 14 mph - - -
4:24am 9 13 mph - - -
4:18am 10 14 mph - - -
4:12am 10 14 mph - - -
4:06am 10 13 mph - - -
4:00am 10 13 mph - - -
3:54am 11 14 mph - - -
3:48am 10 13 mph - - -
3:36am  -  mph - 48f -
3:30am  -  mph - 48f -
3:24am  -  mph - 48f -
3:18am  -  mph - 48f -
3:12am  -  mph - 48f -
3:06am  -  mph - 48f -
3:00am  -  mph - 48f -
2:54am  -  mph - 48f -
2:48am  -  mph - 48f -
2:36am  -  mph 1024.1mb 48f 44f
2:30am  -  mph 1023.9mb 48f 44f
2:24am  -  mph 1023.9mb 48f 44f
2:18am  -  mph 1023.8mb 48f 44f
2:12am  -  mph 1023.8mb 48f 44f
2:06am  -  mph 1023.7mb 48f 44f
2:00am  -  mph 1023.5mb 48f 44f
1:54am  -  mph 1023.4mb 48f 44f
1:48am  -  mph 1023.5mb 48f 44f
1:36am  -  mph 1023.2mb - -
1:30am  -  mph 1023.3mb - -
1:24am  -  mph 1023.3mb - -
1:18am  -  mph 1023.2mb - -
1:12am  -  mph 1023.2mb - -
1:06am  -  mph 1023.2mb - -
1:00am  -  mph 1023.3mb - -
12:54am  -  mph 1023.3mb - -
12:48am  -  mph 1023.2mb - -
12:36am 11 16 mph 1023.2mb - 45f
12:30am 15 20 mph 1023.1mb - 46f
12:24am 15 20 mph 1023mb - 46f
12:18am 11 16 mph 1022.9mb - 46f
12:12am 10 14 mph 1022.9mb - 46f
12:06am 10 17 mph 1022.8mb - 46f
12:00am 11 17 mph 1022.7mb - 46f
Mon 03/02 11:54pm 10 18 mph 1022.8mb - 46f
11:48pm 13 18 mph 1022.8mb - 46f
11:36pm 15 20 mph - - -
11:30pm 16 21 mph - - -
11:24pm 13 21 mph - - -
11:18pm 14 20 mph - - -
11:12pm 16 18 mph - - -
11:06pm 16 20 mph - - -
11:00pm 15 18 mph - - -
10:54pm 11 17 mph - - -
10:48pm 11 18 mph - - -
10:24pm  -  mph 1021.8mb 48f -
10:06pm  -  mph 1021.6mb 48f -
10:00pm  -  mph 1021.6mb 48f -
9:54pm  -  mph 1021.5mb 48f -
9:48pm  -  mph 1021.4mb 48f -
9:36pm  -  mph 1021.2mb 48f 45f
9:30pm  -  mph 1021.1mb 48f 45f
9:24pm  -  mph 1021.1mb 48f 45f
9:18pm  -  mph 1021.1mb 48f 45f
9:12pm  -  mph 1020.9mb 48f 45f
9:06pm  -  mph 1020.8mb 48f 45f
9:00pm  -  mph 1020.7mb 48f 45f
8:54pm  -  mph 1020.8mb 48f 45f
8:48pm  -  mph 1020.8mb 48f 46f
8:18pm  -  mph - 48f -
8:12pm  -  mph - 48f -
8:06pm  -  mph - 48f -
8:00pm  -  mph - 48f -
7:54pm  -  mph - 48f -
7:48pm  -  mph - 48f -
7:36pm  -  mph - - 45f
7:30pm  -  mph - - 45f
7:24pm  -  mph - - 45f
7:18pm  -  mph - - 46f
7:12pm  -  mph - - 45f
7:06pm  -  mph - - 45f
7:00pm  -  mph - - 44f
6:54pm  -  mph - - 45f
6:48pm  -  mph - - 45f
6:36pm  -  mph 1019.7mb - -
6:30pm  -  mph 1019.6mb - -
6:24pm  -  mph 1019.5mb - -
6:18pm  -  mph 1019.5mb - -
6:12pm  -  mph 1019.4mb - -
6:06pm  -  mph 1019.4mb - -
6:00pm  -  mph 1019.4mb - -
5:54pm  -  mph 1019.4mb - -
5:48pm  -  mph 1019.4mb - -
5:36pm  -  mph - - 47f
5:30pm  -  mph - - 47f
5:24pm  -  mph - - 48f
5:18pm  -  mph - - 48f
5:12pm  -  mph - - 48f
5:06pm  -  mph - - 48f
5:00pm  -  mph - - 48f
4:54pm  -  mph - - 48f
4:48pm  -  mph - - 48f
4:36pm 2 5 mph 1018.9mb 48f 49f
4:30pm 2 5 mph 1018.8mb 48f 49f
4:24pm 3 6 mph 1018.8mb 48f 49f
4:18pm 1 3 mph 1018.7mb 48f 50f
4:12pm 2 3 mph 1018.7mb 48f 49f
4:06pm 3 5 mph 1018.7mb 48f 49f
4:00pm 2 9 mph 1018.6mb 48f 49f
3:54pm 3 6 mph 1018.6mb 48f 49f
3:48pm 1 5 mph 1018.7mb 48f 49f
3:36pm 1 5 mph 1018.8mb 48f 49f
3:30pm 2 8 mph 1018.8mb 48f 48f
3:24pm 6 8 mph 1018.8mb 48f 48f
3:18pm 5 7 mph 1018.7mb 48f 48f
3:12pm 5 10 mph 1018.7mb 48f 48f
3:06pm 5 9 mph 1018.6mb 48f 48f
3:00pm 3 8 mph 1018.6mb 48f 48f
2:54pm 6 9 mph 1018.5mb 48f 48f
2:48pm 5 8 mph 1018.5mb 48f 48f
2:36pm 2 7 mph 1018.6mb 48f 49f
2:30pm 6 8 mph 1018.6mb 48f 48f
2:24pm 5 9 mph 1018.4mb 48f 48f
2:18pm 5 9 mph 1018.3mb 48f 48f
2:12pm 6 10 mph 1018.3mb 48f 48f
2:06pm 6 10 mph 1018.3mb 48f 47f
2:00pm 5 8 mph 1018.4mb 48f 48f
1:54pm 5 10 mph 1018.4mb 48f 48f
1:48pm 6 9 mph 1018.4mb 48f 48f
1:36pm 6 11 mph 1018.3mb 48f 48f
1:30pm 6 10 mph 1018.4mb 48f 48f
1:24pm 5 9 mph 1018.4mb 48f 48f
1:18pm 2 10 mph 1018.5mb 48f 48f
1:12pm 3 7 mph 1018.5mb 48f 48f
1:06pm 3 8 mph 1018.5mb 48f 48f
1:00pm 7 10 mph - - 48f
12:54pm 5 8 mph - - 47f
12:48pm 6 11 mph - - 47f
12:36pm 6 9 mph 1018.7mb 48f 47f
12:30pm 6 15 mph 1018.7mb 48f 47f
12:24pm 3 9 mph 1018.8mb 48f 47f
12:18pm 5 9 mph 1018.8mb 48f 47f
12:12pm 6 10 mph 1018.8mb 48f 46f
12:06pm 6 11 mph 1019mb 48f 46f
12:00pm 6 13 mph 1019mb 48f 46f
11:54am 8 11 mph 1019mb 48f 46f
11:48am 8 14 mph 1019mb 48f 46f
11:36am 7 16 mph 1019mb 48f 46f
11:30am 7 11 mph 1019mb 48f 46f
11:24am 8 13 mph 1019mb 48f 45f
11:18am 8 14 mph 1019mb 48f 46f
11:12am 8 11 mph 1019.1mb 48f 45f
11:06am 7 10 mph 1019mb 48f 45f
11:00am 8 11 mph 1019mb 48f 45f
10:54am 6 11 mph 1019mb 48f 46f
10:48am 6 14 mph 1019mb 48f 46f
10:36am 6 11 mph 1019mb 48f 45f
10:30am 6 11 mph 1019.1mb 48f 46f
10:24am 5 10 mph 1019.1mb 48f 46f
10:18am 3 10 mph 1019.1mb 48f 46f
10:12am 7 13 mph 1019mb 48f 45f
10:06am 5 11 mph 1019mb 48f 46f
10:00am 7 13 mph 1018.9mb 48f 45f
9:54am 6 11 mph 1018.8mb 48f 45f
9:48am 7 10 mph 1018.8mb 48f 45f
9:36am 5 11 mph 1018.8mb 48f 45f
9:30am 6 13 mph 1018.7mb 48f 45f
9:24am 6 11 mph 1018.7mb 48f 45f
9:18am 5 11 mph 1018.7mb 48f 45f
9:12am 6 14 mph 1018.6mb 48f 45f
9:06am 7 14 mph 1018.5mb 48f 45f
9:00am 7 11 mph 1018.5mb 48f 45f
8:54am 5 11 mph 1018.4mb 48f 45f
8:48am 7 16 mph 1018.5mb 48f 44f
8:36am 7 11 mph 1018.4mb 48f 44f
8:30am 7 13 mph 1018.4mb 48f 44f
8:24am 6 14 mph 1018.5mb 48f 44f
8:18am 7 14 mph 1018.5mb 48f 44f
8:12am 5 11 mph 1018.7mb 48f 43f
8:06am 6 10 mph 1018.6mb 48f 44f
8:00am 7 10 mph 1018.7mb 48f 44f
7:54am 2 10 mph 1018.7mb 48f 44f
7:48am  -  3 mph 1018.6mb 48f 44f
7:36am 2 6 mph 1018.6mb 48f 43f
7:30am 1 6 mph 1018.5mb 48f 43f
7:24am 3 9 mph 1018.5mb 48f 43f
7:18am 2 9 mph 1018.4mb 48f 42f
7:12am 3 9 mph 1018.3mb 48f 42f
7:06am 2 9 mph 1018.2mb 48f 42f
7:00am 3 9 mph 1018.2mb 48f 42f
6:54am 5 10 mph 1018.1mb 48f 42f
6:48am 2 6 mph 1018mb 48f 42f
6:36am  -  mph 1017.6mb 48f 41f
6:30am  -  mph 1017.5mb 48f 41f
6:24am  -  mph 1017.5mb 48f 41f
6:18am  -  mph 1017.4mb 48f 41f
6:12am  -  mph 1017.5mb 48f 41f
6:06am  -  mph 1017.5mb 48f 41f
6:00am  -  mph 1017.4mb 48f 41f
5:54am  -  mph 1017.5mb 48f 42f
5:48am  -  mph 1017.5mb 48f 41f
5:36am 2 5 mph 1017.7mb 48f 42f
5:30am 2 6 mph 1017.7mb 48f 42f
5:24am 2 7 mph 1017.6mb 48f 42f
5:18am 2 5 mph 1017.6mb 48f 42f
5:12am 1 6 mph 1017.7mb 48f 42f
5:06am 2 6 mph 1017.6mb 48f 42f
5:00am 1 8 mph 1017.5mb 48f 42f
4:54am 3 8 mph 1017.3mb 48f 42f
4:48am 2 8 mph 1017.3mb 48f 42f
4:36am 3 9 mph 1017.4mb 48f 42f
4:30am 3 9 mph 1017.5mb 48f 41f
4:24am 3 8 mph 1017.5mb 48f 41f
4:18am 1 5 mph 1017.4mb 48f 41f
4:12am  -  5 mph 1017.3mb 48f 41f
4:06am 1 5 mph 1017.3mb 48f 41f
4:00am 1 5 mph 1017.3mb 48f 41f
3:54am 2 6 mph 1017.3mb 48f 40f
3:48am 2 3 mph 1017.1mb 48f 40f
3:36am 2 3 mph 1017mb 48f 40f
3:30am 1 5 mph 1017mb 48f 40f
3:24am 1 5 mph 1017.1mb 48f 40f
3:18am 1 3 mph 1017.1mb 48f 40f
3:12am 1 3 mph 1017.1mb 48f 40f
3:06am  -  3 mph 1017.2mb 48f 40f
3:00am  -  3 mph 1017.1mb 48f 40f
2:54am 2 6 mph 1017.2mb 48f 40f
2:48am  -  5 mph 1017.4mb 48f 40f
2:36am  -  3 mph 1017.2mb 48f 41f
2:30am 1 3 mph 1017.2mb 48f 41f
2:24am 2 7 mph 1017.2mb 48f 41f
2:18am 2 7 mph 1017.2mb 48f 40f
2:12am 2 6 mph 1017.1mb 48f 40f
2:06am 2 6 mph 1017.1mb 48f 40f
2:00am 3 6 mph 1017.2mb 48f 40f
1:54am 3 8 mph 1017.1mb 48f 40f
1:48am 2 7 mph 1017.2mb 48f 40f
1:36am 2 8 mph 1017.1mb 48f 40f
1:30am 1 3 mph 1017.1mb 48f 40f
1:24am  -  3 mph 1017mb 48f 40f
1:18am 1 3 mph 1017mb 48f 40f
1:12am  -  2 mph 1017mb 48f 40f
1:06am 1 5 mph 1017mb 48f 40f
1:00am 1 6 mph 1017mb 48f 39f
12:54am  -  6 mph 1016.9mb 48f 39f
12:48am  -  2 mph 1016.9mb 48f 39f
12:36am 2 5 mph 1016.8mb 48f 39f
12:30am 1 3 mph 1016.9mb 48f 39f
12:24am  -  2 mph 1016.9mb 48f 39f
12:18am  -  3 mph 1016.9mb 48f 39f
12:12am  -  1 mph 1017mb 48f 39f
12:06am  -  2 mph 1016.9mb 48f 40f
12:00am 1 2 mph 1016.9mb 48f 39f
Sun 03/01 11:54pm  -  2 mph 1016.9mb 48f 39f
11:48pm  -  3 mph 1016.8mb 48f 40f
11:36pm 1 5 mph 1017mb 48f 39f
11:30pm 1 3 mph 1017mb 48f 39f
11:24pm  -  3 mph 1017.1mb 48f 39f
11:18pm 1 3 mph 1017.1mb 48f 39f
11:12pm 1 6 mph 1017.1mb 48f 39f
11:06pm 1 6 mph 1017.1mb 48f 39f
11:00pm 2 5 mph 1017.1mb 48f 39f
10:54pm 2 7 mph 1017.1mb 48f 39f
10:48pm 5 8 mph 1017.1mb 48f 39f
10:24pm  -  mph 1017.1mb 48f -
10:18pm  -  mph 1017.1mb 48f -
10:00pm  -  mph 1017.1mb 48f -
9:36pm  -  5 mph - - 40f
9:30pm 3 7 mph 1017mb 48f 39f
9:24pm 2 6 mph 1017mb 48f 40f
9:18pm 5 8 mph 1017mb 48f 40f
9:12pm 3 8 mph 1016.9mb 48f 40f
9:06pm 3 6 mph 1016.9mb 48f 40f
9:00pm 5 7 mph 1016.9mb 48f 40f
8:54pm 3 7 mph - - 40f
8:48pm 5 9 mph - - 41f
8:36pm 3 7 mph - - 41f
8:30pm 3 9 mph 1016.9mb 48f 41f
8:24pm 2 6 mph 1016.8mb 48f 41f
8:18pm 2 8 mph 1016.9mb 48f 41f
8:12pm 3 7 mph - - 41f
8:06pm 5 7 mph - - 41f
8:00pm 3 8 mph 1016.8mb 48f 41f
7:54pm 3 8 mph 1016.8mb 48f 42f
7:48pm 5 7 mph 1016.7mb 48f 41f
7:24pm  -  mph 1016.7mb 48f -
7:18pm  -  mph 1016.7mb 48f -